Welcome to the New NWS' Forecast!
Most changes are behind the scenes, but click here for differences you might notice.
Latest weather observations around

Monticello, Monticello Municipal Airport/Ellis Field (KLLQ)

Using English Units (Switch to International System of Units)
Date/ Time (CDT) Wind (mph) Vis. (mi) Weather Sky Cond. Temp (°F) Rel. Humidity Wind Chill (°F) Heat Index (°F) Pressure Precip. (in)
Air Dwpt 6 hour Altimeter (inHg) Sea level (inHg) 1 hr 3 hr 6 hr
Max Min
May 24 20:53 W 6 10 Clear CLR 60 51     72%     29.68 29.68      
May 24 19:53 W 6 10 Clear CLR 64 50     60%     29.67 29.67      
May 24 18:53 W 7 10 Mostly Clear FEW095 68 51     55%     29.66 29.65      
May 24 17:53 W 10 10 Clear CLR 70 50     49%     29.66 29.65      
May 24 16:53 WNW 7 10 Cloudy SCT060 BKN070 OVC090 69 49     49%     29.65 29.65      
May 24 15:53 W 11 10 Cloudy OVC095 69 51     53%     29.66 29.65      
May 24 14:53 W 15 10 Mostly Cloudy FEW055 FEW075 BKN100 69 52     54%     29.66 29.65      
May 24 13:53 WNW 10 10 Cloudy FEW040 SCT050 OVC090 67 51     57%     29.66 29.65      
May 24 12:53 WNW 9 10 Mostly Cloudy FEW035 FEW055 BKN080 68 53     59%     29.66 29.65      
May 24 11:53 WSW 10 10 Mostly Cloudy SCT032 SCT047 BKN065 66 53     63%     29.66 29.66      
May 24 10:32 WNW 9 10 Mostly Cloudy FEW021 BKN055 64 54     70%     29.66        
May 24 09:27 W 10 10 Mostly Cloudy BKN019 62 55     78%     29.66        
May 24 08:53 WNW 10 10 Mostly Clear FEW013 62 55     78%     29.66 29.66      
May 24 07:53 W 7 10 Mostly Clear FEW006 60 56     86%     29.66 29.66      
May 24 07:51 W 6 10 Partly Cloudy SCT006 59 55     88%     29.66        
May 24 07:02 W 9 10 Mostly Cloudy BKN006 BKN010 58 56     93%     29.66        
May 24 06:53 W 7 10 Partly Cloudy SCT006 58 55     90%     29.66 29.65     1
May 24 06:03 W 6 10 Mostly Cloudy SCT006 BKN110 58 56     93%     29.65        
May 24 05:53 W 6 10 Mostly Cloudy BKN110 58 56     93%     29.65 29.65      
May 24 05:14 W 6 10 Mostly Cloudy SCT006 BKN095 BKN120 59 57     93%     29.65        
May 24 05:05 W 7 10 Cloudy BKN006 BKN017 OVC085 59 57     93%     29.65        
May 24 04:53 W 7 10 Cloudy FEW008 BKN080 OVC120 59 57     93%     29.66 29.65 0    
May 24 03:53 NNW 5 4 Rain and Fog/Mist OVC070 59 57     93%     29.66 29.65 0 1  
May 24 02:53 W 11 6 Rain and Fog/Mist FEW009 SCT055 OVC070 60 57     90%     29.71 29.7 0    
May 24 02:44 WNW 10 5 Rain and Fog/Mist FEW009 OVC065 59 57     93%     29.7   0    
May 24 02:02 WNW 8 7 Light Rain SCT011 BKN046 OVC075 60 57     90%     29.71   0    
May 24 01:53 NW 9 5 Rain and Fog/Mist BKN011 BKN033 OVC060 60 57     90%     29.7 29.69 1    
May 24 01:35 WNW 13 4 Rain and Fog/Mist SCT009 BKN013 OVC031 61 58     90%     29.7   0    
May 24 01:17 NW 10 2.5 Heavy Rain and Fog/Mist FEW005 BKN018 OVC025 61 58     90%     29.7   0    
May 24 01:04 WNW 10 1 Heavy Rain and Fog/Mist FEW004 BKN010 OVC023 61 59     93%     29.71   0    
May 24 00:53 5 0.75 Heavy Rain and Fog/Mist BKN008 OVC014 62 59     90%     29.71 29.7 1   1
May 24 00:51 WNW 5 0.75 Heavy Rain and Fog/Mist BKN008 OVC014 63 59     88%     29.71   0    
May 24 00:45 SW 9 1.75 Heavy Rain and Fog/Mist BKN007 OVC014 62 60     93%     29.71   0    
May 24 00:37 S 6 5 Light Rain and Fog/Mist BKN007 OVC016 62 60     93%     29.7   0    
May 24 00:25 SSE 5 8 Light Rain FEW007 OVC018 62 60     93%     29.7   0    
May 23 23:53 Calm 4 Rain and Fog/Mist BKN022 OVC029 62 60     93%     29.71 29.7 0    
May 23 23:40 SW 6 3 Heavy Rain and Fog/Mist BKN028 OVC035 63 59     87%     29.72   0    
May 23 22:53 WNW 5 10 Cloudy FEW040 SCT050 OVC085 63 60     90%     29.71 29.7 0    
May 23 21:53 WNW 5 10 Light Rain OVC100 63 60     90%     29.71 29.7 0 0  
May 23 20:53 W 3 10 Clear   63 61     93%     29.7 29.69      
May 23 19:53 WNW 6 10 Clear   63 60     90%     29.71 29.7      
May 23 18:53 SW 6 10 Cloudy OVC090 64 60     87%     29.71 29.7 1   1
May 23 18:44 SSW 6 10 Cloudy OVC095 63 60     90%     29.7   1    
May 23 18:33 SSE 6 10 Light Rain SCT021 OVC095 63 59     87%     29.7   1    
May 23 18:26 S 7 2.5 Light Rain SCT021 BKN040 OVC095 63 58     84%     29.7   1    
May 23 18:21 S 3 1 Heavy Rain BKN023 BKN040 OVC090 65 56     73%     29.71   1    
May 23 18:16 Calm 0.5 Thunderstorms and Heavy Rain BKN018 BKN038 OVC060 64 57     78%     29.73   1    
May 23 18:09 NW 9 0.25 Thunderstorms and Heavy Rain and Fog SCT008 BKN041 OVC060 65 61     87%     29.74   1    
May 23 18:03   0.75 Thunderstorms and Rain and Fog/Mist FEW012 BKN041 OVC100 69 66     90%     29.74   0    
May 23 18:01 NW 11 2.5 Thunderstorms and Fog/Mist FEW016 BKN060 OVC100 70 66     87%     29.73   0    
May 23 17:53 3 10 Mostly Cloudy SCT040 SCT050 BKN075 70 66     87%     29.71 29.7 0    
May 23 16:53 Calm 8 Light Rain SCT065 BKN090 OVC100 71 66     84%   72 29.72 29.71 0    
May 23 15:53 NW 3 10 Cloudy SCT045 BKN055 OVC065 75 61     62%   75 29.74 29.73      
May 23 14:53 3 10 Mostly Cloudy BKN040 BKN050 BKN060 77 60     56%   77 29.76 29.75      
May 23 13:53 WNW 6 10 Mostly Cloudy SCT037 BKN110 76 60     58%   76 29.77 29.76      
May 23 12:53 SW 7 10 Clear CLR 73 60     64%   73 29.8 29.79      
May 23 11:53 WSW 8 10 Partly Cloudy FEW025 SCT031 72 60     66%   72 29.82 29.81      
May 23 10:53 WNW 6 10 Clear CLR 70 58     66%     29.81 29.8      
May 23 09:53 WNW 5 10 Mostly Clear FEW028 FEW046 69 58     68%     29.82 29.81      
May 23 09:20 WNW 5 10 Cloudy SCT028 OVC049 69 60     73%     29.83        
May 23 08:53 WNW 5 10 Cloudy OVC028 66 60     81%     29.83 29.83      
May 23 08:09 WNW 5 10 Mostly Cloudy BKN027 BKN110 66 60     81%     29.83        
May 23 08:02 WNW 6 10 Mostly Cloudy SCT026 BKN110 65 59     81%     29.84        
May 23 07:53 WNW 6 10 Mostly Cloudy BKN026 BKN110 65 59     81%     29.83 29.83      
May 23 07:36 WNW 6 10 Mostly Cloudy BKN027 65 60     84%     29.83        
May 23 06:53 Calm 10 Clear CLR 61 59     93%     29.81 29.8      
May 23 05:53 Calm 10 Mostly Clear FEW026 60 58     93%     29.83 29.82      
May 23 05:22 WSW 3 10 Partly Cloudy SCT024 SCT080 61 58     90%     29.83        
May 23 04:53 N 3 10 Cloudy OVC023 62 60     93%     29.83 29.83      
May 23 04:03 Calm 10 Mostly Cloudy BKN029 62 60     93%     29.85        
May 23 03:53 NW 3 10 Mostly Cloudy BKN031 61 59     93%     29.85 29.85      
May 23 03:38 Calm 10 Mostly Cloudy FEW021 BKN031 63 60     90%     29.85        
May 23 02:53 Calm 10 Cloudy OVC026 63 60     90%     29.86 29.86      
May 23 01:53 Calm 10 Cloudy OVC024 63 60     90%     29.88 29.88      
May 23 00:53 Calm 10 Cloudy OVC024 63 60     90%     29.91 29.9      
May 22 23:53 WNW 3 10 Cloudy OVC024 63 60     90%     29.93 29.92      
May 22 22:53 Calm 10 Cloudy OVC026 63 60     90%     29.93 29.93      
May 22 22:38 N 3 10 Cloudy OVC028 62 60     93%     29.94        
May 22 21:53 Calm 10 Cloudy BKN034 OVC060 63 60     90%     29.94 29.93      
May 22 20:53 NNW 5 10 Cloudy OVC050 62 60     93%     29.95 29.94      
May 22 19:53 NNW 3 10 Cloudy OVC055 63 60     90%     29.95 29.95      
May 22 18:53 NE 5 10 Cloudy OVC050 63 61     93%     29.95 29.95 0   0
May 22 17:53 Calm 10 Cloudy OVC050 63 60     90%     29.98 29.97      
May 22 16:53 SE 5 10 Cloudy BKN065 OVC100 63 60     90%     29.98 29.98 0    
May 22 15:53 SE 3 10 Light Rain SCT070 BKN100 OVC120 64 60     87%     30.02 30.01 0 0  
May 22 14:53 Calm 10 Light Rain FEW075 OVC110 64 60     87%     30.04 30.03 0    
May 22 13:53 ESE 5 10 Light Rain BKN085 OVC110 65 58     78%     30.05 30.04 0    
May 22 12:53 3 10 Cloudy OVC100 64 60     87%     30.06 30.05 0   0
May 22 11:53 NE 5 10 Cloudy OVC100 64 59     84%     30.08 30.07      
May 22 10:53 NE 5 10 Cloudy OVC110 64 59     84%     30.09 30.08      
May 22 09:53 NE 3 10 Mostly Cloudy BKN110 64 58     81%     30.11 30.1      
May 22 08:53 NE 3 10 Clear CLR 63 56     78%     30.12 30.11      
May 22 06:53 Calm 10 Clear CLR 62 56     80%     30.13 30.12      
May 22 05:53 ENE 3 10 Clear CLR 59 56     90%     30.11 30.1      
May 22 04:53 Calm 10 Clear CLR 61 59     93%     30.12 30.11      
May 22 03:53 Calm 10 Clear CLR 62 57     84%     30.1 30.09      
May 22 02:53 Calm 10 Clear CLR 63 58     84%     30.09 30.09      
May 22 01:53 Calm 10 Clear CLR 62 59     90%     30.1 30.09      
May 22 00:53   10 Clear   62 60     93%     30.11 30.1      
May 21 23:53 Calm 10 Clear CLR 63 61     93%     30.1 30.09      
May 21 22:53 Calm 10 Clear CLR 62 61     96%     30.12 30.11      
May 21 21:53 Calm 8 Clear CLR 64 63     96%     30.11 30.11      
May 21 20:53 Calm 10 Clear CLR 66 64     93%     30.11 30.1      
May 21 19:53 S 6 10 Clear CLR 68 64     87%     30.1 30.09      
May 21 18:53 E 5 10 Clear CLR 72 63     73%   72 30.06 30.05     0
May 21 17:53 Calm 10 Clear CLR 73 63     71%   73 30.09 30.08      
May 21 16:53 5 10 Clear CLR 72 61     68%   72 30.06 30.05      
May 21 15:53 NNW 3 10 Clear CLR 67 64     90%     30.06 30.05 0 0  
May 21 14:53 Calm 6 Light Rain and Fog/Mist FEW004 BKN095 OVC110 65 63     93%     30.1 30.09 0    
May 21 14:51 NNW 3 7 Light Rain FEW004 SCT095 OVC110 64 63     94%     30.1   0    
May 21 14:36 NW 7 10 Light Rain FEW004 BKN100 OVC120 65 63     93%     30.11   0    
May 21 14:22 ESE 6 6 Rain and Fog/Mist SCT090 OVC110 65 63     93%     30.09   0    
May 21 14:12 Calm 3 Rain and Fog/Mist BKN090 OVC110 65 62     90%     30.12   0    
May 21 14:08 Calm 2 Thunderstorms and Rain and Fog/Mist FEW080 OVC100 65 62     90%     30.12   0    
May 21 13:53 Calm 4 Thunderstorms and Rain and Fog/Mist FEW080 OVC100 65 63     93%     30.14 30.13 0    
May 21 13:41 W 7 9 Light Rain FEW009 SCT090 OVC110 65 62     90%     30.15   0    
May 21 13:09 WSW 9 5 Light Rain and Fog/Mist SCT023 BKN035 OVC110 66 64     93%     30.17   0    
May 21 13:00 WSW 9 4 Thunderstorms and Rain and Fog/Mist SCT023 BKN034 OVC048 67 64     90%     30.18   0    
May 21 12:53 WSW 8 9 Thunderstorms and Rain BKN026 BKN050 OVC070 68 63     84%     30.17 30.16 0   1
May 21 12:49 WSW 9 10 Thunderstorms and Rain BKN029 BKN050 OVC070 68 63     83%     30.17   0    
Notice The following observation data may not be complete
May 21 12:31   10 Mostly Cloudy FEW050 SCT075 BKN090          %              
May 21 11:53 3 10 Mostly Clear FEW015 71 61     70%   71 30.12 30.11      
May 21 10:53 WSW 3 10 Mostly Cloudy BKN040 BKN060 BKN075 68 64     87%     30.13 30.12 0    
May 21 10:31 E 9 7 Light Rain FEW026 SCT060 OVC070 67 64     90%     30.09   0    
May 21 10:15 N 5 6 Thunderstorms and Rain BKN065 OVC080 67 62     84%     30.12   0    
May 21 10:02 5 10 Cloudy BKN080 OVC100 68 63     84%     30.12        
May 21 09:53 6 10 Thunderstorms FEW015 OVC080 68 64     87%     30.12 30.11   1  
Notice The following observation data may not be complete
May 21 09:01   10 Mostly Cloudy BKN080          %              
May 21 08:53 3 10 Partly Cloudy SCT075 68 64     87%     30.1 30.09 1    
May 21 08:45 NNE 3 10 Mostly Cloudy FEW009 SCT070 BKN110 66 63     90%     30.1   1    
May 21 08:34 5 10 Thunderstorms SCT034 SCT055 BKN070 65 63     93%     30.1   1    
May 21 08:27 3 2.5 Thunderstorms and Rain and Fog/Mist FEW007 BKN032 OVC070 65 62     90%     30.1   1    
May 21 08:21 7 0.75 Thunderstorms and Rain and Fog/Mist BKN032 BKN055 OVC070 64 63     96%     30.09   1    
May 21 07:59 6 1.25 Thunderstorms and Heavy Rain and Fog/Mist FEW017 BKN050 OVC070 66 63     90%     30.11   0    
May 21 07:53 WNW 6 10 Thunderstorms SCT047 BKN055 OVC070 66 63     90%     30.12 30.11 0    
May 21 07:46 3 10 Cloudy BKN050 OVC065 66 63     90%     30.11   0    
May 21 07:32 3 10 Cloudy FEW022 BKN055 OVC070 66 64     93%     30.1   0    
May 21 07:15 NW 5 3 Thunderstorms and Rain and Fog/Mist SCT021 BKN047 OVC055 66 64     93%     30.1   0    
May 21 07:11 Calm 1 Thunderstorms and Rain and Fog/Mist SCT017 OVC047 66 64     93%     30.1   0    
May 21 07:04 N 8 0.5 Thunderstorms and Heavy Rain and Fog BKN019 OVC048 66 64     93%     30.09   0    
May 21 06:58 WNW 6 1.75 Thunderstorms and Heavy Rain and Fog/Mist FEW011 SCT026 OVC048 67 65     93%     30.1   0    
May 21 06:53 WNW 9 8 Thunderstorms and Rain OVC048 67 65     93%     30.11 30.11 0   1
May 21 06:49 NW 3 10 Thunderstorms OVC050 66 64     94%     30.09   0    
May 21 06:30 NW 3 10 Light Rain SCT009 OVC055 68 65     90%     30.09   0    
May 21 06:11 NW 5 10 Cloudy BKN007 OVC060 68 66     93%     30.08        
May 21 05:53 WNW 5 10 Cloudy OVC006 69 67     93%     30.07 30.06      
May 21 05:40 NW 7 10 Cloudy BKN005 OVC011 69 67     93%     30.07        
May 21 05:29 Calm 10 Cloudy OVC009 70 67     90%     30.05        
May 21 05:26 NNW 3 10 Cloudy BKN011 OVC080 70 67     90%     30.05        
May 21 05:19 NNW 3 10 Cloudy BKN009 OVC080 70 67     90%     30.05        
May 21 05:06 NW 3 10 Cloudy FEW008 BKN080 OVC100 70 68     93%     30.04        
May 21 04:53 WNW 7 10 Thunderstorms SCT090 OVC110 70 67     90%     30.05 30.04 0    
May 21 04:35 WNW 5 10 Mostly Cloudy FEW095 BKN110 69 67     93%     30.04   0    
May 21 04:19 NW 9 9 Thunderstorms and Rain FEW040 SCT070 BKN095 70 68     93%     30.02   0    
May 21 04:06 5 2.5 Thunderstorms and Heavy Rain and Fog/Mist FEW006 BKN035 OVC095 70 68     93%     30.04   0    
May 21 03:53 W 8 3 Thunderstorms and Rain and Fog/Mist SCT032 BKN041 OVC090 71 68     90%   72 30.05 30.04 0 0  
May 21 03:40   1.75 Thunderstorms and Heavy Rain and Fog/Mist FEW017 BKN037 OVC048 71 69     93%   72 30.06   0    
May 21 03:19 WSW 5 7 Thunderstorms and Rain BKN048 BKN075 OVC090 71 68     90%   72 30.03   0    
May 21 03:12 NW 8 2.5 Thunderstorms and Rain and Fog/Mist BKN048 BKN075 OVC100 71 69     93%   72 30.03   0    
May 21 02:53 ENE 6 6 Thunderstorms and Rain and Fog/Mist OVC050 71 69     93%   72 30 29.99 0    
May 21 02:29 Calm 10 Thunderstorms SCT050 BKN070 OVC095 71 68     90%   72 30        
May 21 01:53 Calm 10 Mostly Cloudy FEW070 BKN090 BKN120 70 68     93%     29.99 29.98      
May 21 00:53 Calm 10 Clear CLR 70 68     93%     29.99 29.98      
May 20 23:53 Calm 10 Cloudy SCT060 OVC100 71 68     90%   72 30 29.99      
May 20 22:53 Calm 10 Cloudy OVC100 70 68     93%     29.99 29.98      
May 20 21:53 W 3 10 Mostly Cloudy BKN085 70 68     93%     29.98 29.97      
May 20 20:53 Calm 10 Mostly Clear FEW080 70 68     93%     29.97 29.96      
May 20 19:53 Calm 10 Mostly Clear FEW080 74 69     85%   75 29.94 29.93      
May 20 18:53 Calm 10 Clear CLR 76 68     76%   77 29.93 29.92     0
May 20 17:53 ENE 5 10 Mostly Clear FEW027 76 68     76%   77 29.95 29.93      
May 20 16:53 Calm 10 Cloudy OVC018 76 68     76%   77 29.96 29.94 0    
May 20 16:40 NNW 3 10 Cloudy SCT014 BKN020 OVC110 75 67     76%   76 29.94   0    
May 20 16:31 Calm 10 Mostly Cloudy BKN014 BKN090 BKN110 75 68     79%   76 29.93   0    
May 20 15:53 WNW 9 10 Mostly Cloudy FEW010 SCT075 BKN100 74 69     85%   75 29.91 29.9      
May 20 14:53 ESE 6 10 Partly Cloudy SCT007 72 67     84%   73 29.92 29.91      
May 20 14:43 3 10 Mostly Clear FEW007 73 67     81%   74 29.92        
May 20 13:53 E 7 10 Mostly Cloudy BKN008 71 66     84%   72 29.96 29.95      
May 20 12:53 3 10 Mostly Cloudy BKN007 BKN120 70 66     87%     29.97 29.96     0
May 20 12:48 5 10 Mostly Cloudy BKN007 70 66     88%     29.98        
May 20 12:34 E 10 10 Mostly Cloudy BKN006 70 66     87%     29.98        
May 20 12:10 NE 9 10 Partly Cloudy SCT005 SCT110 70 67     90%     29.98        
May 20 11:53 ENE 10 10 Mostly Cloudy FEW020 SCT100 BKN120 68 66     93%     29.97 29.97 0    
May 20 11:42 ENE 10 10 Light Rain SCT018 BKN095 BKN120 68 65     90%     29.99   0    
May 20 11:33 NNE 7 8 Thunderstorms and Rain SCT018 OVC095 68 65     90%     29.99   0    
May 20 11:12 N 10 4 Thunderstorms and Rain and Fog/Mist BKN020 BKN029 OVC080 71 68     90%   72 30   0    
May 20 11:06 6 1.5 Thunderstorms and Heavy Rain and Fog/Mist SCT020 BKN029 BKN039 71 68     90%   72 29.99   0    
May 20 10:58   2.5 Thunderstorms and Rain SCT020 BKN033 BKN042 74 68     82%   75 29.99   0    
May 20 10:53   10 Thunderstorms SCT020 BKN025 BKN030 79 71     77%   82 29.98 29.97 0    
May 20 10:36 S 8 10 Mostly Cloudy SCT018 BKN030 BKN065 81 72     74%   85 29.96   0    
May 20 09:53 S 9 10 Cloudy BKN017 OVC023 80 72     76%   84 29.97 29.96      
May 20 08:53 SSE 7 10 Mostly Cloudy BKN015 BKN110 78 72     82%   79 29.95 29.94      
May 20 08:50 SSE 9 10 Mostly Cloudy BKN013 BKN018 BKN110 79 72     79%   82 29.95        
May 20 07:53 S 8 10 Mostly Clear FEW021 FEW029 77 71     82%   78 29.96 29.94      
May 20 06:53 SSE 6 10 Mostly Clear FEW100 74 71     91%   75 29.93 29.92      
May 20 05:53 Calm 10 Mostly Cloudy FEW020 BKN038 BKN100 74 70     87%   75 29.92 29.91      
May 20 04:53 S 3 10 Partly Cloudy SCT095 74 70     87%   75 29.92 29.91      
May 20 03:53 3 10 Clear CLR 75 70     84%   76 29.89 29.88      
May 20 02:53 S 8 10 Clear CLR 76 70     82%   77 29.89 29.87      
May 20 01:53 S 6 10 Clear CLR 76 71     85%   77 29.89 29.88      
May 20 00:53 SSE 5 10 Clear CLR 77 71     82%   78 29.9 29.89      
May 19 23:53 SSE 6 10 Mostly Clear FEW100 77 71     82%   78 29.9 29.89      
May 19 22:53 SE 3 10 Mostly Clear FEW100 79 71     77%   82 29.89 29.88      
May 19 21:53 SSE 6 10 Clear CLR 80 72     76%   84 29.88 29.86      
May 19 20:53 SE 3 10 Clear   81 74     79%   86 29.87 29.86      
May 19 19:53 Calm 10 Clear CLR 83 75     77%   90 29.85 29.84      
May 19 18:53 ESE 3 10 Clear CLR 85 74     70%   92 29.85 29.83     0
May 19 17:53 S 7 10 Clear CLR 87 73     63%   95 29.86 29.85      
May 19 16:53 SSE 6 10 Mostly Cloudy BKN100 86 73     65%   93 29.87 29.85      
May 19 15:53 S 9 10 Mostly Cloudy FEW030 BKN080 BKN100 82 70     67%   86 29.89 29.88   0  
May 19 15:43 S 10 10 Mostly Cloudy SCT030 SCT042 BKN075 85 73     68%   92 29.89        
May 19 15:02 E 6 10 Partly Cloudy FEW029 FEW036 SCT100 84 72     67%   90 29.89        
May 19 14:53 SE 7 10 Thunderstorms FEW029 SCT100 86 73     65%   93 29.9 29.88      
May 19 14:41 ESE 8 10 Thunderstorms FEW029 SCT100 86 73     65%   93 29.9        
May 19 14:29 S 6 10 Partly Cloudy FEW035 SCT080 SCT100 87 75     68%   97 29.9        
May 19 14:05 SW 6 10 Mostly Cloudy FEW028 SCT036 BKN085 82 74     77%   88 29.91        
May 19 13:53 W 3 10 Thunderstorms FEW028 SCT037 BKN090 81 73     77%   86 29.91 29.9 0    
May 19 13:37 WSW 10 7 Thunderstorms and Rain FEW025 BKN036 OVC085 79 74     85%   83 29.92   0    
May 19 12:53 S 8 10 Partly Cloudy SCT030 SCT040 86 71     61%   92 29.93 29.92      
May 19 11:53 SSW 10 10 Mostly Clear FEW029 85 71     63%   90 29.95 29.94      
May 19 10:53 S 8 10 Mostly Cloudy SCT021 BKN037 82 71     69%   86 29.96 29.95      
May 19 10:36 S 8 10 Partly Cloudy FEW018 SCT034 82 72     72%   87 29.96        
May 19 09:53 SSE 8 10 Mostly Cloudy BKN020 81 72     74%   85 29.96 29.95      
May 19 09:28 S 10 10 Cloudy BKN016 OVC021 79 72     79%   82 29.96        
May 19 08:53 S 7 10 Cloudy OVC013 79 72     79%   82 29.96 29.95      
May 19 08:23 SSE 7 10 Mostly Cloudy BKN010 77 72     84%   78 29.95        
May 19 07:53 SE 6 10 Mostly Cloudy BKN007 76 72     88%   77 29.95 29.94      
May 19 07:25 SSE 5 10 Partly Cloudy FEW006 SCT016 75 72     90%   76 29.95        
May 19 07:16 SSE 3 10 Mostly Cloudy SCT008 BKN016 BKN020 75 71     88%   76 29.95        
May 19 06:51 SE 5 10 Partly Cloudy FEW009 SCT080 73 72     94%   75 29.94        
May 19 05:53 SSE 7 10 Cloudy OVC070 73 71     94%   74 29.92 29.91      
May 19 04:53 ESE 5 10 Clear CLR 73 70     90%   74 29.93 29.92      
May 19 03:53 S 3 10 Clear   75 71     88%   76 29.94 29.93      
May 19 02:53 S 5 10 Partly Cloudy FEW028 SCT035 76 70     82%   77 29.93 29.92      
May 19 01:53 S 7 10 Mostly Clear FEW034 FEW095 75 69     82%   76 29.92 29.91      
May 19 00:53 S 5 10 Clear CLR 75 67     76%   76 29.92 29.91      
May 18 23:53 S 3 10 Mostly Clear FEW085 75 67     76%   76 29.91 29.9      
May 18 22:53 S 3 10 Clear CLR 76 67     74%   77 29.9 29.89      
May 18 21:53 Calm 10 Clear CLR 78 69     74%   79 29.87 29.86      
May 18 20:53 Calm 10 Clear CLR 77 70     79%   78 29.86 29.85      
May 18 19:53 Calm 10 Clear CLR 83 70     65%   87 29.86 29.85      
May 18 17:53 S 8 10 Clear CLR 88 68     52%   92 29.86 29.85      
May 18 16:53 S 10 10 Partly Cloudy SCT047 SCT055 88 67     50%   91 29.88 29.87      
May 18 14:53 SSW 11 10 Clear   88 68     52%   92 29.9 29.89      
May 18 13:53 S 11 10 Partly Cloudy FEW039 SCT050 88 68     52%   92 29.92 29.91      
May 18 12:53   10 Mostly Cloudy SCT037 BKN045 85 68     57%   88 29.94 29.93      
May 18 11:53 S 9   Mostly Cloudy BKN031 BKN038 84 69     61%   88 29.96 29.95      
May 18 11:14     Clear   82 69     65%   85 29.96        
May 18 11:06 SSW 15   Mostly Cloudy BKN026 BKN031 BKN100 82 69     65%   85 29.96        
May 18 10:53 S 8 10 Mostly Cloudy SCT024 BKN095 82 69     65%   85 29.96 29.95      
May 18 09:53 S 15 10 Mostly Cloudy SCT020 BKN100 79 68     69%   80 29.95 29.94      
May 18 08:53 S 10 10 Partly Cloudy FEW014 SCT100 77 69     77%   78 29.95 29.93      
May 18 07:53 S 8 10 Mostly Cloudy SCT080 BKN110 73 67     81%   74 29.94 29.93      
May 18 06:53 S 7 10 Cloudy OVC080 70 65     84%     29.94 29.92      
May 18 05:53 SSE 7 10 Cloudy BKN080 OVC100 71 66     84%   72 29.92 29.91      
May 18 05:18 S 5 10 Cloudy SCT021 OVC080 72 66     82%   73 29.91        
May 18 04:53 S 6 10 Cloudy BKN021 BKN080 OVC090 72 66     82%   73 29.91 29.9      
May 18 04:48 S 5 10 Cloudy BKN023 BKN080 OVC090 72 66     83%   72 29.91        
May 18 03:53 S 3 10 Cloudy OVC080 72 65     79%   73 29.9 29.89      
May 18 02:53 S 3 10 Cloudy OVC070 73 65     76%   74 29.89 29.88      
May 18 01:53 S 6 10 Mostly Cloudy BKN060 73 64     73%   73 29.89 29.88      
May 18 00:53 S 6 10 Mostly Clear FEW095 75 63     66%   75 29.88 29.87      
May 17 23:53 S 6 10 Clear   76 62     62%   76 29.87 29.86      
May 17 22:53 S 7 10 Partly Cloudy SCT085 77 63     62%   77 29.86 29.85      
May 17 21:53 S 9 10 Cloudy OVC080 79 63     58%   79 29.86 29.85      
May 17 20:53 S 7 10 Cloudy OVC085 79 65     62%   80 29.84 29.83      
May 17 19:53 S 8 10 Mostly Clear FEW085 80 65     60%   82 29.82 29.81      
May 17 18:53 S 9 10 Clear CLR 82 65     56%   84 29.81 29.79      
May 17 17:53 SSE 9 10 Mostly Cloudy FEW070 BKN090 82 65     56%   84 29.81 29.8      
May 17 16:53 S 11 10 Clear CLR 83 64     53%   84 29.8 29.78      
May 17 15:53 S 15 10 Mostly Clear FEW055 87 65     48%   89 29.81 29.8      
May 17 14:53 S 14 10 Mostly Cloudy BKN049 87 65     48%   89 29.83 29.82      
May 17 13:53 S 13 10 Mostly Cloudy SCT041 BKN050 85 65     51%   87 29.84 29.83      
May 17 12:53 S 20 10 Partly Cloudy and Windy SCT042 84 65     53%   86 29.86 29.85      
May 17 11:53 S 13 10 Mostly Clear FEW034 84 66     55%   86 29.87 29.85      
May 17 10:53 S 17 10 Clear CLR 81 65     58%   83 29.89 29.88      
May 17 09:53 S 13 10 Clear CLR 78 65     64%   79 29.92 29.91      
May 17 08:53 SSW 11 10 Clear CLR 74 65     74%   74 29.94 29.93      
May 17 07:53 WSW 7 10 Clear CLR 69 64     84%     29.96 29.94      
May 17 06:53 WSW 5 10 Mostly Clear FEW038 66 63     90%     29.92 29.91      
May 17 05:53 SSE 5 10 Clear CLR 66 62     87%     29.83 29.81      
May 17 04:53 SSE 6 10 Clear CLR 66 62     87%     29.81 29.8      
May 17 03:53 S 3 10 Clear CLR 68 62     81%     29.82 29.8      
May 17 02:53 S 5 10 Clear CLR 69 62     78%     29.83 29.81      
May 17 01:53 S 6 10 Clear CLR 70 63     78%     29.83 29.82      
May 17 00:53 S 10   Clear   72 62     71%   72 29.83 29.82      
May 16 23:53 S 7 10 Clear CLR 71 62     73%   71 29.84 29.83      
May 16 22:53 S 3 10 Clear CLR 73 61     66%   73 29.85 29.84      
May 16 21:53 S 5 10 Clear CLR 74 62     66%   74 29.87 29.85      
May 16 20:53 S 3 10 Clear CLR 76 61     60%   76 29.86 29.84      
May 16 19:53 S 6 10 Clear CLR 79 62     56%   79 29.86 29.85      
May 16 18:53 S 8 10 Clear CLR 83 62     49%   84 29.86 29.85      
May 16 17:53 S 11 10 Clear CLR 85 61     45%   85 29.88 29.87      
May 16 16:53 S 10 10 Mostly Clear FEW050 86 60     42%   86 29.89 29.88      
May 16 15:53 S 11 10 Clear CLR 87 63     45%   88 29.91 29.89      
May 16 14:53 S 14 10 Partly Cloudy SCT049 85 62     46%   86 29.93 29.92      
May 16 13:53 S 13 10 Partly Cloudy SCT050 85 61     45%   85 29.95 29.93      
May 16 12:53 S 13 10 Mostly Cloudy BKN049 85 62     46%   86 29.97 29.96      
May 16 11:53 S 15 10 Mostly Clear FEW050 84 61     46%   84 29.99 29.97      
May 16 10:53 S 10 10 Clear CLR 82 64     55%   84 29.99 29.98      
May 16 09:53 SSW 8 10 Clear CLR 80 65     60%   82 29.99 29.98      
May 16 08:53 SSW 8 10 Clear CLR 76 62     62%   76 29.98 29.97      
May 16 07:53 S 3 10 Clear CLR 70 63     78%     29.98 29.96      
May 16 06:53 S 3 10 Clear CLR 65 61     87%     29.97 29.96      
May 16 05:53 Calm 10 Clear CLR 61 58     90%     29.96 29.95      
May 16 04:53 W 3 10 Clear CLR 64 60     87%     29.95 29.94      
May 16 03:53 Calm 10 Clear CLR 63 60     90%     29.94 29.93      
May 16 02:53 SSW 6 10 Clear CLR 70 60     71%     29.93 29.92      
May 16 01:53 S 5 10 Clear CLR 68 60     76%     29.93 29.91      
May 16 00:53 Calm 10 Clear CLR 67 61     81%     29.93 29.91      
May 15 23:53 SSW 3 10 Clear CLR 69 62     78%     29.94 29.93      
May 15 22:53 Calm 10 Clear CLR 70 63     78%     29.95 29.94      
May 15 21:53 Calm 10 Clear CLR 70 63     78%     29.95 29.93      
May 15 20:53 Calm 10 Clear CLR 71 64     79%   72 29.93 29.92      
May 15 19:53 Calm 10 Clear CLR 77 64     64%   77 29.93 29.92      
May 15 18:53 S 5 10 Clear   83 60     46%   83 29.93 29.92      
May 15 17:53 S 7 10 Clear CLR 85 59     42%   85 29.93 29.92      
May 15 16:53 5 10 Clear CLR 85 57     39%   84 29.94 29.93      
May 15 15:53 5 10 Clear CLR 86 58     39%   85 29.95 29.94      
May 15 14:53 SSW 9 10 Clear CLR 84 59     43%   84 29.97 29.96      
May 15 13:53 6 10 Mostly Cloudy BKN050 83 59     44%   83 29.98 29.98      
May 15 12:53 5 10 Mostly Clear FEW048 83 59     44%   83 30 29.99      
May 15 11:53 3 10 Partly Cloudy SCT049 81 59     47%   81 30.01 30.01      
May 15 10:53 S 9 10 Mostly Cloudy BKN044 81 58     45%   81 30.02 30.01      
May 15 09:53 SSE 6 10 Clear   78 61     56%   78 30.01 30      
May 15 08:53 SSE 6 10 Clear   73 61     66%   73 30 29.99      
May 15 07:53   10 Clear   68 60     76%     30 29.99      
May 15 06:53 Calm 10 Clear CLR 62 58     86%     29.99 29.98      
May 15 05:53 Calm 10 Clear CLR 60 57     90%     29.98 29.97      
May 15 04:53 Calm 10 Partly Cloudy SCT049 60 57     90%     29.98 29.97      
May 15 03:53 Calm 10 Clear CLR 60 57     90%     29.97 29.96      
May 15 02:53 Calm 10 Clear CLR 62 58     86%     29.96 29.95      
May 15 01:53 Calm 10 Clear CLR 62 59     90%     29.96 29.95      
May 15 00:53 Calm 10 Clear CLR 65 59     81%     29.95 29.94      
May 14 23:53 SSW 3 10 Clear CLR 64 60     87%     29.95 29.94      
May 14 22:53 Calm 10 Clear CLR 64 61     90%     29.96 29.95      
May 14 21:53 Calm 10 Mostly Clear FEW046 66 61     84%     29.95 29.94      
May 14 20:53 Calm 10 Clear CLR 70 63     78%     29.93 29.93      
May 14 19:53 Calm 10 Clear CLR 76 62     62%   76 29.92 29.91      
May 14 18:53 SSW 6 10 Clear CLR 80 59     49%   81 29.92 29.91      
May 14 17:53 SSE 3 10 Mostly Clear FEW050 81 58     45%   81 29.93 29.92      
May 14 16:53 S 3 10 Mostly Clear FEW049 81 57     44%   81 29.93 29.92      
May 14 15:53 SE 6 10 Mostly Clear FEW050 82 57     43%   82 29.94 29.93      
May 14 14:53 3 10 Mostly Clear FEW049 81 56     42%   81 29.96 29.96      
May 14 13:53 ESE 3 10 Partly Cloudy SCT047 80 57     45%   80 29.98 29.97      
May 14 12:53 Calm 10 Clear CLR 80 56     44%   80 29.99 29.98      
May 14 11:53 N 3 10 Partly Cloudy SCT044 77 56     48%   77 30 29.99      
May 14 10:53 Calm 10 Mostly Clear FEW042 76 56     50%   76 30.02 30.01      
May 14 09:53 Calm 10 Clear CLR 74 57     56%   74 30.03 30.02      
May 14 08:53 Calm 10 Clear CLR 69 57     65%     30.02 30.01      
May 14 07:53 NE 3 10 Clear CLR 64 56     75%     30.01 30.01      
May 14 06:53 Calm 10 Clear CLR 56 54     93%     30 29.99      
May 14 05:53 Calm 10 Clear CLR 54 52     93%     29.98 29.98      
May 14 04:53 Calm 10 Clear CLR 54 52     93%     29.96 29.95      
May 14 03:53 Calm 10 Clear CLR 54 52     93%     29.94 29.93      
May 14 02:53 Calm 10 Clear CLR 55 53     93%     29.93 29.92      
May 14 01:53 Calm 10 Clear CLR 56 54     93%     29.93 29.92      
May 14 00:53 Calm 10 Clear CLR 57 54     89%     29.93 29.93      
May 13 23:53 Calm 10 Clear CLR 57 55     93%     29.93 29.92      
May 13 22:53 Calm 10 Clear CLR 58 55     90%     29.92 29.91      
May 13 21:53 Calm 10 Clear CLR 60 56     86%     29.92 29.91      
May 13 20:53 N 3 10 Clear CLR 64 56     75%     29.91 29.9      
May 13 19:53 Calm 10 Clear CLR 68 57     68%     29.91 29.9      
May 13 18:53 5 10 Clear CLR 75 54     48%   74 29.9 29.89      
May 13 17:53 NE 6 10 Partly Cloudy SCT049 76 53     45%   75 29.91 29.9